This demonstration page uses our WeatherBlox Daily Observations layout. Learn more.

38.89511, -77.03637

Hourly Observations for September 17, 2015

Temp ( °F °C ) Dew Point ( °F °C ) Humidity (%) Winds ( mph kmh ) Pressure ( in mb ) Visibility ( mi km ) Precip ( " mm )
12:52 am 00:52 Mostly Clear 70 21 61 16 73 73 SSW 3 6 30.24 1024 10 16.09344 0 0
1:52 am 01:52 Clear 70 21 61 16 73 73 Calm 30.24 1024 10 16.09344 0 0
2:52 am 02:52 Clear 68 20 61 16 78 78 SW 3 6 30.21 1023 10 16.09344 0 0
3:52 am 03:52 Clear 66 19 61 16 83 83 SW 3 6 30.21 1023 10 16.09344 0 0
4:52 am 04:52 Clear 64 18 61 16 88 88 Calm 30.21 1023 10 16.09344 0 0
5:52 am 05:52 Mostly Clear 64 18 61 16 88 88 SW 3 6 30.21 1023 10 16.09344 0 0
6:24 am 06:24 Partly Cloudy 64 18 61 16 88 88 SW 3 6 30.21 1023 10 16.09344 0 0
6:52 am 06:52 Partly Cloudy 63 17 61 16 94 94 SW 3 6 30.21 1023 10 16.09344 0 0
7:52 am 07:52 Partly Cloudy 66 19 61 16 83 83 Calm 30.21 1023 10 16.09344 0 0
8:52 am 08:52 Partly Cloudy 70 21 63 17 78 78 Calm 30.21 1023 10 16.09344 0 0
9:52 am 09:52 Partly Cloudy 72 22 63 17 73 73 E 3 6 30.21 1023 10 16.09344 0 0
10:52 am 10:52 Mostly Sunny 75 24 63 17 65 65 ESE 3 6 30.21 1023 10 16.09344 0 0
11:52 am 11:52 Partly Cloudy 81 27 57 14 45 45 S 5 7 30.18 1022 10 16.09344 0 0
12:52 pm 12:52 Partly Cloudy 82 28 55 13 40 40 S 8 13 30.18 1022 10 16.09344 0 0
1:52 pm 13:52 Partly Cloudy 84 29 54 12 35 35 S 7 11 30.15 1021 10 16.09344 0 0
2:52 pm 14:52 Mostly Sunny 84 29 52 11 33 33 SSE 6 9 30.12 1020 10 16.09344 0 0
3:52 pm 15:52 Mostly Sunny 84 29 54 12 35 35 SSW 6 9 30.09 1019 10 16.09344 0 0
4:52 pm 16:52 Mostly Sunny 84 29 57 14 40 40 S 9 15 30.09 1019 10 16.09344 0 0
5:52 pm 17:52 Mostly Sunny 82 28 59 15 45 45 S 10 17 30.06 1018 10 16.09344 0 0
6:52 pm 18:52 Mostly Sunny 81 27 59 15 48 48 S 9 15 30.06 1018 10 16.09344 0 0
7:52 pm 19:52 Mostly Clear 77 25 57 14 51 51 S 8 13 30.06 1018 10 16.09344 0 0
8:52 pm 20:52 Clear 75 24 57 14 54 54 SSE 8 13 30.09 1019 10 16.09344 0 0
9:52 pm 21:52 Clear 72 22 59 15 65 65 SSW 8 13 30.09 1019 10 16.09344 0 0
10:52 pm 22:52 Clear 72 22 59 15 65 65 SSW 6 9 30.09 1019 10 16.09344 0 0
11:52 pm 23:52 Clear 72 22 61 16 69 69 SSW 8 13 30.09 1019 10 16.09344 0 0

Powered by AerisWeather